Location: Bacharowice
(49.9333°N, 19.5833°E)
Time: 08:13:36
(UTC+00:00)

Cosmos 2344 - Pass Details

Date: 03 October 2021
Orbit: 1235 x 3007 km, 63.3° (Epoch: 19 October)

Event Time Altitude Azimuth Distance (km) Brightness Sun altitude
Rises 20:03:17 0° 313° (NW) 4,382 7.4 -34.8°
Reaches altitude 10° 20:05:53 10° 317° (NW) 3,521 6.7 -35.1°
Maximum altitude 20:14:30 67° 40° (NE) 1,834 4.2 -36.1°
Enters shadow 20:15:26 65° 68° (ENE) 1,903 4.2 -36.2°
